Location: Champs
(48.8539°N, 2.6040°E)
Time: 06:01:03
(UTC+00:00)

Cosmos 2219 Rocket - Pass Details

Date: 26 October 2021
Orbit: 826 x 848 km, 71.0° (Epoch: 04 December)

Event Time Altitude Azimuth Distance (km) Brightness Sun altitude
Exits shadow 02:47:00 14° 360° (N) 2,165 4.5 -36.1°
Maximum altitude 02:50:16 23° 42° (NE) 1,732 4.3 -35.6°
Drops below altitude 10° 02:54:41 10° 94° (E) 2,467 5.3 -35.0°
Sets 02:57:40 0° 108° (ESE) 3,402 6.0 -34.5°
